Regional Weather Roundup
Issued by NWS Kansas City/Pleasant Hill, MO

Home | Current Version | Previous Version | Text Only | Print | Product List | Glossary On
Versions: 1 2 3 4 5 6 7 8 9 10 11 12 13 14 15 16 17 18 19 20 21 22 23 24 25 26 27 28 29 30 31 32 33 34 35 36 37 38 39 40 41 42 43 44 45 46 47 48 49 50
000
ASUS43 KEAX 300710
RWREAX

WEATHER ROUNDUP FOR EASTERN KANSAS AND NORTHWEST MISSOURI
NATIONAL WEATHER SERVICE KANSAS CITY/PLEASANT HILL MO
200 AM CDT SAT AUG 30 2014

KSZ040-057-103>105-MOZ028-029-037-043-300800-
...KANSAS CITY METROPOLITAN AREA...

CITY           SKY/WX    TMP DP  RH WIND       PRES   REMARKS
K.C. INTL      PTCLDY    70  67  90 SW8       29.87F
K.C. DOWNTOWN  MOCLDY    73  70  90 CALM      29.87S
LEES SUMMIT    PTCLDY    73  66  78 SW7       29.89F
OLATHE - IXD   CLEAR     74  66  76 SW9       29.89F
OLATHE - OJC   CLEAR     73  65  75 S3        29.89S
LAWRENCE       CLEAR     71  66  84 CALM      29.88S

$$

MOZ001>008-011>017-020>025-030>033-038>040-044>046-053-054-300800-
...NORTHERN AND CENTRAL MISSOURI...

CITY           SKY/WX    TMP DP  RH WIND       PRES   REMARKS
ST. JOSEPH     CLEAR     68  66  93 SW3       29.86S
MOSBY          MOSUNNY   72  66  83 S3        29.87S
WHITEMAN AFB   PTCLDY    71  67  87 SW8       29.90S
CLINTON        MOCLDY    75  68  78 S8        29.91F
SEDALIA        PTCLDY    75  66  73 S10       29.91S
WARSAW         NOT AVBL
MARSHALL       MOCLDY    73  70  88 CALM      29.91R
CHILLICOTHE      N/A     71  67  87 S6        29.87F
MOBERLY        CLOUDY    73  68  83 W9        29.92R
KIRKSVILLE     LGT RAIN  69  67  93 W10       29.90R

$$

MOZ041-047>049-056>058-063>065-088>090-097-300800-
...EASTERN AND SOUTHERN MISSOURI...

CITY           SKY/WX    TMP DP  RH WIND       PRES   REMARKS
ST. LOUIS INTL CLOUDY    79  68  69 SW9       29.92S
SPIRIT OF STL  CLOUDY    76  68  76 S7        29.90S
COLUMBIA       CLEAR     71  69  93 S8        29.91F
JEFFERSON CITY CLEAR     72  68  87 CALM      29.91S
MEXICO         CLEAR    N/A N/A N/A S10       29.90S
HANNIBAL       CLEAR     73  70  88 S8        29.88S
ROLLA          PTCLDY    70  66  87 S12       29.94S
LEBANON        MOCLDY    70  66  88 S8        29.96F
OSAGE BEACH    CLOUDY    72  66  83 SE3       29.93F
SPRINGFIELD    PTCLDY    72  67  84 S9        29.95F
BRANSON        MOCLDY    72  68  88 SE7       29.99S
NEVADA         MOCLDY    73  66  78 S7        29.93F
JOPLIN         MOCLDY    74  67  78 S10       29.94S
WEST PLAINS    CLOUDY    71  67  87 SW5       30.00F

$$

IAZ060-094-KSZ022-034>040-054-083-096-NEZ052-066-093-300800-
...KANSAS...SOUTHEAST NEBRASKA AND IOWA...

CITY           SKY/WX    TMP DP  RH WIND       PRES   REMARKS
TOPEKA         CLEAR     72  68  87 CALM      29.87S
MANHATTAN      CLEAR     69  65  86 W6        29.89S
EMPORIA        CLEAR     68  65  90 S3        29.90S
CHANUTE        CLEAR     71  67  87 S7        29.92R
WICHITA        PTCLDY    69  66  90 SW3       29.92S
OMAHA          CLEAR     67  64  90 W3        29.85R
LINCOLN        CLEAR     65  63  93 CALM      29.89R
FALLS CITY     CLEAR     68  66  93 S5        29.85S
LAMONI         PTCLDY    66  64  93 SW7       29.84S
DES MOINES     CLOUDY    69  66  90 SW13      29.79F

$$




USA.gov is the U.S. government's official web portal to all federal, state and local government web resources and services.